Regional Weather Roundup
Issued by NWS Upton, NY

Current Version | Previous Version | Text Only | Print | Product List | Glossary On
Versions: 1 2 3 4 5 6 7 8 9 10 11 12 13 14 15 16 17 18 19 20 21 22 23 24 25 26 27 28 29 30 31 32 33 34 35 36 37 38 39 40 41 42 43 44 45 46 47 48 49 50
000
ASUS41 KOKX 302004
RWROKX

REGIONAL WEATHER ROUNDUP
NATIONAL WEATHER SERVICE NEW YORK NY
400 PM EDT THU JUL 30 2015

NOTE: "FAIR" INDICATES FEW OR NO CLOUDS BELOW 12,000 FEET WITH NO
SIGNIFICANT WEATHER AND/OR OBSTRUCTIONS TO VISIBILITY.

NYZ071-072-176-178-NJZ106-104-302100-
NEW YORK CITY METRO AREA


CITY           SKY/WX    TMP DP  RH WIND       PRES   REMARKS
CENTRAL PARK   HVY RAIN  80  76  87 CALM      29.83F VSB 1/2
LAGUARDIA APRT LGT RAIN  79  72  79 SE12G22   29.78F VSB 1/2
KENNEDY INTL   PTSUNNY   80  73  79 S23G31    29.81F THUNDER
NEWARK/LIBERTY LGT RAIN  86  74  67 SW14G22   29.78F HX  94
BRNX BOT. GARD   N/A     77  73  88 SW10      29.84R
TETERBORO      CLOUDY    85  74  69 S7        29.78F HX  92
$$

NYZ177-179-078>081-302100-
LONG ISLAND NEW YORK

CITY           SKY/WX    TMP DP  RH WIND       PRES   REMARKS
FARMINGDALE    PTSUNNY   81  72  74 S21G26    29.82F
ISLIP          CLOUDY    79  72  79 S18G28    29.80F
SHIRLEY        PTSUNNY   79  73  82 S16G26    29.83F
WESTHAMPTON    MOSUNNY   82  73  74 S16G26    29.84F
MONTAUK POINT    N/A     81  74  79 S13G22    29.85F
$$

NYZ052-065-067-302100-
HUDSON VALLEY

CITY           SKY/WX    TMP DP  RH WIND       PRES   REMARKS
WHITE PLAINS   PTSUNNY   79  70  74 S6        29.82S
NEWBURGH       NOT AVBL
MONTGOMERY     LGT RAIN  78  72  81 SW9       29.80F
POUGHKEEPSIE   CLOUDY    81  72  74 SW7       29.78F
ALBANY         PTSUNNY   83  71  67 NW8       29.77S
$$

NJZ001-105-106-008-010-013-015-019>022-104-302100-
NEW JERSEY

CITY           SKY/WX    TMP DP  RH WIND       PRES   REMARKS
NEWARK/LIBERTY LGT RAIN  86  74  67 SW14G22   29.78F HX  94
TETERBORO      CLOUDY    85  74  69 S7        29.78F HX  92
CALDWELL       LGT RAIN  84  74  71 VRB5      29.79F HX  91
MORRISTOWN     RAIN      84  75  74 W17G29    29.81F HX  92
SOMERVILLE     TSTM      75  71  87 CALM      29.80F FOG
SUSSEX         TSTM      75  72  90 S3        29.82F
ANDOVER          N/A     74  72  93 SW3       29.83F
TRENTON        TSTM      76  71  85 W12G21    29.83R VSB 1/2
MILLVILLE      MOSUNNY   86  75  69 S8        29.85F HX  95
ATLANTIC CITY  PTSUNNY   87  74  64 S15G22    29.85F HX  95
WRIGHTSTOWN    CLOUDY    87  76  69 SW9       29.79F HX  97
TOMS RIVER       N/A     84  75  74 S10G20    29.84S HX  92
BELMAR         CLOUDY    86  72  62 SW8G16    29.82F HX  92
$$

PAZ047>061-062-071-302100-
EASTERN PENNSYLVANIA

CITY           SKY/WX    TMP DP  RH WIND       PRES   REMARKS
PHILADELPHIA   TSTM      79  72  79 NW8       29.84F
ALLENTOWN      LGT RAIN  77  73  87 SW6       29.83F
SCRANTON       PTSUNNY   86  67  52 VRB7      29.83F
$$

CTZ002-004>006-009-010-012-RIZ004-006-007-MAZ004-011-015-302100-
SOUTHERN NEW ENGLAND
 IN CT

CITY           SKY/WX    TMP DP  RH WIND       PRES   REMARKS
BRADLEY INTL   CLOUDY    84  72  67 S12       29.76F THUNDER
HARTFORD       PTSUNNY   85  74  69 S8G18     29.76F HX  92
DANBURY        TSTM      76  69  79 NW10G18   29.84R
WTRBRY/OXFORD  CLOUDY    81  72  74 SW12G20   29.83F THUNDER FOG
BRIDGEPORT     MOSUNNY   84  74  71 S18       29.79F HX  91
MERIDEN        PTSUNNY   84  73  69 S16G25    29.79F HX  90
NEW HAVEN      CLOUDY    81  74  79 S9        29.80F
CHESTER        MOCLDY    82  73  74 S9G22     29.83F
GROTON         PTSUNNY   80  71  74 S13       29.82F
WILLIMANTIC    CLOUDY    83  73  72 S10       29.80F

 IN RI

CITY           SKY/WX    TMP DP  RH WIND       PRES   REMARKS
PROVIDENCE     PTSUNNY   85  73  67 SW20G26   29.81F HX  91
BLOCK ISLAND     N/A     79  73  83 SW16      29.86F
WESTERLY       MOSUNNY   81  73  76 S17G24    29.84F

 IN MA

CITY           SKY/WX    TMP DP  RH WIND       PRES   REMARKS
BOSTON         PTSUNNY   89  71  55 SW22G28   29.76F HX  95
WORCESTER      PTSUNNY   82  71  69 S10       29.82F
WESTFIELD      LGT RAIN  78  73  84 S10G18    29.77F
PROVINCETOWN   SUNNY     81  68  65 S20G29    29.82S
NANTUCKET      PTSUNNY   76  71  85 SW14      29.87F
$$

ANZ330-335-338-340-345-350-353-355-302100-
COASTAL MARINE OBSERVATIONS


STATION/POSITION TIME  SKY/WX   TEMP    WIND        PRES    VSBY  WAVE
                                AIR SEA DIR/SP/G                  HT/PER
                 (UTC)          (F)     (DEG/KT/KT) (MB)    (MI)  (FT/S)
NY HARB ENTRANCE 1850            78 77  200/ 23/ 27 1009.5          5/ 5
4S FIRE IS       NOT AVBL
20S FIRE ISLAND  1850            77 76  200/ 17/ 19 1010.8          5/ 6
GREAT SOUTH BAY  1900            78 81  230/ 16/ 21   N/A
23SW MTP         1950            77 74  220/ 17/ 21 1010.4          4/ 5
HUDSON CANYON    NOT AVBL
KINGS POINT      1900            72 72  270/ 21/ 41 1010.9
EXECUTION ROCKS  1900            76     220/  6/ 16   N/A
CENTRAL LI SOUND NOT AVBL
EASTERN LI SOUND 1900            76 68  210/  8/ 12   N/A
ROBBINS REEF     1900            80     100/  4/  5 1008.4
$$


>>>>>>>>>>>>>>>>>>>>>>>>>>>> KEY <<<<<<<<<<<<<<<<<<<<<<<<<<<
>                                                          <
>     SKY/WX - SKY CONDITION/PRESENT WEATHER               <
>     TMP    - TEMPERATURE IN FAHRENHEIT                   <
>     DP     - DEWPOINT IN FAHRENHEIT                      <
>     RH     - RELATIVE HUMIDITY IN PERCENT                <
>     WIND   - DIRECTION AND SPEED IN MPH                  <
>     PRES   - MEAN SEA LEVEL PRESSURE IN INCHES OF HG     <
>     WCI    - WIND CHILL INDEX                            <
>     VSB    - VISIBILITY IN MILES                         <
>     HX     - HEAT INDEX                                  <
>     TC     - TEMPERATURE IN CELSIUS                      <
>     VRB    - VARIABLE WIND DIRECTION                     <
>                                                          <
>>>>>>>>>>>>>>>>>>>>>>>>>>>> KEY <<<<<<<<<<<<<<<<<<<<<<<<<<<





USA.gov is the U.S. government's official web portal to all federal, state and local government web resources and services.